Time,TemperatureF,DewpointF,PressureIn,WindDirection,WindDirectionDegrees,WindSpeedMPH,WindSpeedGustMPH,Humidity,HourlyPrecipIn,Conditions,Clouds,dailyrainin,SoftwareType,DateUTC
2013-05-24 00:01:00,46.0,41.5,30.07,NW,315,0.0,0.0,84,0.00,OVC,OVC,0.10,WeatherDisplay:10.37,2013-05-24 04:01:00,
2013-05-24 00:02:00,46.0,41.5,30.07,NW,315,0.0,0.0,84,0.00,OVC,OVC,0.00,WeatherDisplay:10.37,2013-05-24 04:02:00,
2013-05-24 00:03:00,46.0,41.5,30.07,NW,315,0.0,0.0,84,0.00,OVC,OVC,0.00,WeatherDisplay:10.37,2013-05-24 04:03:00,
2013-05-24 00:05:00,46.0,41.5,30.07,NW,315,0.0,0.0,84,0.00,OVC,OVC,0.00,WeatherDisplay:10.37,2013-05-24 04:05:00,
2013-05-24 00:10:00,46.0,41.2,30.07,NW,315,2.3,2.3,83,0.00,OVC,OVC,0.00,WeatherDisplay:10.37,2013-05-24 04:10:00,
2013-05-24 00:13:00,46.0,41.2,30.07,NW,315,2.3,2.3,83,0.00,OVC,OVC,0.00,WeatherDisplay:10.37,2013-05-24 04:13:00,
2013-05-24 00:18:00,46.0,41.2,30.08,North,0,0.0,0.0,83,0.00,OVC,OVC,0.00,WeatherDisplay:10.37,2013-05-24 04:18:00,
2013-05-24 00:23:00,46.0,41.2,30.08,NNW,338,0.0,0.0,83,0.00,OVC,OVC,0.00,WeatherDisplay:10.37,2013-05-24 04:23:00,
2013-05-24 00:28:00,46.0,41.2,30.08,NW,315,0.0,0.0,83,0.00,OVC,OVC,0.00,WeatherDisplay:10.37,2013-05-24 04:28:00,
2013-05-24 00:33:00,46.0,40.9,30.08,NNW,338,0.0,0.0,82,0.00,OVC,OVC,0.00,WeatherDisplay:10.37,2013-05-24 04:33:00,
2013-05-24 00:38:00,45.7,40.5,30.08,NW,315,0.0,0.0,82,0.00,OVC,OVC,0.00,WeatherDisplay:10.37,2013-05-24 04:38:00,
2013-05-24 00:43:00,45.7,40.5,30.08,NW,315,0.0,0.0,82,0.00,OVC,OVC,0.00,WeatherDisplay:10.37,2013-05-24 04:43:00,
2013-05-24 00:48:00,45.3,40.1,30.08,NW,315,0.0,0.0,82,0.00,OVC,OVC,0.00,WeatherDisplay:10.37,2013-05-24 04:48:00,
2013-05-24 00:53:00,45.1,40.3,30.08,WNW,292,0.0,0.0,83,0.00,OVC,OVC,0.00,WeatherDisplay:10.37,2013-05-24 04:53:00,
2013-05-24 00:58:00,45.1,40.3,30.08,NW,315,0.0,0.0,83,0.00,OVC,OVC,0.00,WeatherDisplay:10.37,2013-05-24 04:58:00,
2013-05-24 01:03:00,45.0,40.1,30.08,NW,315,0.0,0.0,83,0.00,OVC,OVC,0.00,WeatherDisplay:10.37,2013-05-24 05:03:00,
2013-05-24 01:08:00,45.0,40.1,30.08,NW,315,0.0,0.0,83,0.00,OVC,OVC,0.00,WeatherDisplay:10.37,2013-05-24 05:08:00,
2013-05-24 01:13:00,44.4,39.6,30.08,NW,315,0.0,0.0,83,0.00,OVC,OVC,0.00,WeatherDisplay:10.37,2013-05-24 05:13:00,
2013-05-24 01:18:00,44.4,39.6,30.08,NW,315,0.0,0.0,83,0.00,OVC,OVC,0.00,WeatherDisplay:10.37,2013-05-24 05:18:00,
2013-05-24 01:23:00,44.2,39.7,30.08,NW,315,0.0,0.0,84,0.00,OVC,OVC,0.00,WeatherDisplay:10.37,2013-05-24 05:23:00,
2013-05-24 01:28:00,44.2,39.7,30.08,NW,315,0.0,0.0,84,0.00,OVC,OVC,0.00,WeatherDisplay:10.37,2013-05-24 05:28:00,
2013-05-24 01:33:00,44.1,39.5,30.08,NW,315,0.0,0.0,84,0.00,OVC,OVC,0.00,WeatherDisplay:10.37,2013-05-24 05:33:00,
2013-05-24 01:38:00,43.9,39.7,30.09,NW,315,0.0,0.0,85,0.00,OVC,OVC,0.00,WeatherDisplay:10.37,2013-05-24 05:38:00,
2013-05-24 01:43:00,43.9,39.7,30.09,NW,315,0.0,0.0,85,0.00,OVC,OVC,0.00,WeatherDisplay:10.37,2013-05-24 05:43:00,
2013-05-24 01:48:00,43.9,39.7,30.09,WNW,292,0.0,0.0,85,0.00,OVC,OVC,0.00,WeatherDisplay:10.37,2013-05-24 05:48:00,
2013-05-24 01:53:00,43.9,39.7,30.09,NW,315,0.0,0.0,85,0.00,OVC,OVC,0.00,WeatherDisplay:10.37,2013-05-24 05:53:00,
2013-05-24 01:58:00,43.7,39.5,30.08,NW,315,0.0,0.0,85,0.00,OVC,OVC,0.00,WeatherDisplay:10.37,2013-05-24 05:58:00,
2013-05-24 02:03:00,43.7,39.5,30.08,NW,315,0.0,0.0,85,0.00,OVC,OVC,0.00,WeatherDisplay:10.37,2013-05-24 06:03:00,
2013-05-24 02:08:00,43.7,39.5,30.08,NW,315,0.0,0.0,85,0.00,OVC,OVC,0.00,WeatherDisplay:10.37,2013-05-24 06:08:00,
2013-05-24 02:13:00,43.3,39.4,30.09,NW,315,0.0,0.0,86,0.00,OVC,OVC,0.00,WeatherDisplay:10.37,2013-05-24 06:13:00,
2013-05-24 02:18:00,43.3,39.4,30.09,NW,315,0.0,0.0,86,0.00,OVC,OVC,0.00,WeatherDisplay:10.37,2013-05-24 06:18:00,
2013-05-24 02:23:00,43.3,39.7,30.09,WNW,292,0.0,0.0,87,0.00,OVC,OVC,0.00,WeatherDisplay:10.37,2013-05-24 06:23:00,
2013-05-24 02:28:00,43.2,39.6,30.09,NW,315,0.0,0.0,87,0.00,OVC,OVC,0.00,WeatherDisplay:10.37,2013-05-24 06:28:00,
2013-05-24 02:33:00,43.2,39.6,30.09,NW,315,0.0,0.0,87,0.00,OVC,OVC,0.00,WeatherDisplay:10.37,2013-05-24 06:33:00,
2013-05-24 02:38:00,43.0,39.4,30.09,NW,315,0.0,0.0,87,0.00,OVC,OVC,0.00,WeatherDisplay:10.37,2013-05-24 06:38:00,
2013-05-24 02:43:00,43.0,39.4,30.09,NW,315,0.0,0.0,87,0.00,OVC,OVC,0.00,WeatherDisplay:10.37,2013-05-24 06:43:00,
2013-05-24 02:48:00,42.6,39.0,30.09,NW,315,0.0,0.0,87,0.00,OVC,OVC,0.00,WeatherDisplay:10.37,2013-05-24 06:48:00,
2013-05-24 02:53:00,42.6,39.0,30.09,NW,315,0.0,0.0,87,0.00,OVC,OVC,0.00,WeatherDisplay:10.37,2013-05-24 06:53:00,
2013-05-24 02:58:00,42.6,39.0,30.09,NW,315,0.0,0.0,87,0.00,OVC,OVC,0.00,WeatherDisplay:10.37,2013-05-24 06:58:00,
2013-05-24 03:03:00,42.6,39.0,30.09,NW,315,0.0,0.0,87,0.00,OVC,OVC,0.00,WeatherDisplay:10.37,2013-05-24 07:03:00,
2013-05-24 03:08:00,42.6,39.0,30.09,NW,315,0.0,0.0,87,0.00,OVC,OVC,0.00,WeatherDisplay:10.37,2013-05-24 07:08:00,
2013-05-24 03:13:00,42.4,39.1,30.09,NW,315,0.0,0.0,88,0.00,OVC,OVC,0.00,WeatherDisplay:10.37,2013-05-24 07:13:00,
2013-05-24 03:18:00,42.4,39.1,30.09,WNW,292,0.0,0.0,88,0.00,OVC,OVC,0.00,WeatherDisplay:10.37,2013-05-24 07:18:00,
2013-05-24 03:23:00,42.4,39.1,30.10,WNW,292,0.0,0.0,88,0.00,OVC,OVC,0.00,WeatherDisplay:10.37,2013-05-24 07:23:00,
2013-05-24 03:29:00,42.4,39.4,30.10,WNW,292,0.0,0.0,89,0.00,OVC,OVC,0.00,WeatherDisplay:10.37,2013-05-24 07:29:00,
2013-05-24 03:34:00,42.4,39.4,30.10,WNW,292,0.0,0.0,89,0.00,OVC,OVC,0.00,WeatherDisplay:10.37,2013-05-24 07:34:00,
2013-05-24 03:39:00,42.4,39.4,30.10,WNW,292,0.0,0.0,89,0.00,OVC,OVC,0.00,WeatherDisplay:10.37,2013-05-24 07:39:00,
2013-05-24 03:44:00,42.4,39.4,30.10,WNW,292,0.0,0.0,89,0.00,OVC,OVC,0.00,WeatherDisplay:10.37,2013-05-24 07:44:00,
2013-05-24 03:49:00,42.4,39.4,30.10,WNW,292,0.0,0.0,89,0.00,OVC,OVC,0.00,WeatherDisplay:10.37,2013-05-24 07:49:00,
2013-05-24 03:54:00,42.4,39.4,30.11,WNW,292,0.0,0.0,89,0.00,OVC,OVC,0.00,WeatherDisplay:10.37,2013-05-24 07:54:00,
2013-05-24 03:59:00,42.6,39.6,30.11,WNW,292,0.0,0.0,89,0.00,OVC,OVC,0.00,WeatherDisplay:10.37,2013-05-24 07:59:00,
2013-05-24 04:04:00,42.6,39.6,30.11,WNW,292,0.0,0.0,89,0.00,OVC,OVC,0.00,WeatherDisplay:10.37,2013-05-24 08:04:00,
2013-05-24 04:09:00,42.6,39.6,30.11,WNW,292,0.0,0.0,89,0.00,OVC,OVC,0.00,WeatherDisplay:10.37,2013-05-24 08:09:00,
2013-05-24 04:14:00,43.0,40.0,30.11,WNW,292,0.0,0.0,89,0.00,OVC,OVC,0.00,WeatherDisplay:10.37,2013-05-24 08:14:00,
2013-05-24 04:19:00,43.2,40.1,30.11,WNW,292,0.0,0.0,89,0.00,OVC,OVC,0.00,WeatherDisplay:10.37,2013-05-24 08:19:00,
2013-05-24 04:24:00,43.2,40.1,30.11,WNW,292,0.0,0.0,89,0.00,OVC,OVC,0.00,WeatherDisplay:10.37,2013-05-24 08:24:00,
2013-05-24 04:29:00,43.5,40.5,30.11,WNW,292,0.0,0.0,89,0.00,OVC,OVC,0.00,WeatherDisplay:10.37,2013-05-24 08:29:00,
2013-05-24 04:34:00,43.5,40.5,30.11,WNW,292,0.0,0.0,89,0.00,OVC,OVC,0.00,WeatherDisplay:10.37,2013-05-24 08:34:00,
2013-05-24 04:39:00,43.7,40.7,30.11,WNW,292,0.0,0.0,89,0.00,OVC,OVC,0.00,WeatherDisplay:10.37,2013-05-24 08:39:00,
2013-05-24 04:44:00,43.7,40.7,30.11,WNW,292,0.0,0.0,89,0.00,OVC,OVC,0.00,WeatherDisplay:10.37,2013-05-24 08:44:00,
2013-05-24 04:49:00,43.9,40.8,30.11,WNW,292,0.0,0.0,89,0.00,OVC,OVC,0.00,WeatherDisplay:10.37,2013-05-24 08:49:00,
2013-05-24 04:54:00,44.1,41.3,30.12,WNW,292,0.0,0.0,90,0.00,OVC,OVC,0.00,WeatherDisplay:10.37,2013-05-24 08:54:00,
2013-05-24 04:59:00,44.1,41.3,30.12,WNW,292,0.0,0.0,90,0.00,OVC,OVC,0.00,WeatherDisplay:10.37,2013-05-24 08:59:00,
2013-05-24 05:04:00,44.2,41.5,30.12,WNW,292,0.0,0.0,90,0.00,OVC,OVC,0.00,WeatherDisplay:10.37,2013-05-24 09:04:00,
2013-05-24 05:09:00,44.2,41.5,30.13,WNW,292,0.0,0.0,90,0.00,OVC,OVC,0.00,WeatherDisplay:10.37,2013-05-24 09:09:00,
2013-05-24 05:14:00,44.4,41.7,30.14,North,0,0.0,0.0,90,0.00,OVC,OVC,0.00,WeatherDisplay:10.37,2013-05-24 09:14:00,
2013-05-24 05:19:00,44.4,41.7,30.13,NW,315,0.0,0.0,90,0.00,OVC,OVC,0.00,WeatherDisplay:10.37,2013-05-24 09:19:00,
2013-05-24 05:24:00,44.4,41.7,30.13,NW,315,0.0,0.0,90,0.00,OVC,OVC,0.00,WeatherDisplay:10.37,2013-05-24 09:24:00,
2013-05-24 05:29:00,44.4,41.7,30.13,NW,315,0.0,0.0,90,0.00,OVC,OVC,0.00,WeatherDisplay:10.37,2013-05-24 09:29:00,
2013-05-24 05:34:00,44.4,41.7,30.14,NW,315,0.0,0.0,90,0.00,OVC,OVC,0.00,WeatherDisplay:10.37,2013-05-24 09:34:00,
2013-05-24 05:39:00,44.4,41.7,30.14,NNE,22,0.0,0.0,90,0.00,OVC,OVC,0.00,WeatherDisplay:10.37,2013-05-24 09:39:00,
2013-05-24 05:44:00,44.4,41.7,30.14,NNE,22,0.0,0.0,90,0.00,OVC,OVC,0.00,WeatherDisplay:10.37,2013-05-24 09:44:00,
2013-05-24 05:49:00,44.6,41.8,30.14,NNW,338,0.0,0.0,90,0.00,OVC,OVC,0.00,WeatherDisplay:10.37,2013-05-24 09:49:00,
2013-05-24 05:54:00,44.8,42.0,30.14,NE,45,0.0,0.0,90,0.00,OVC,OVC,0.00,WeatherDisplay:10.37,2013-05-24 09:54:00,
2013-05-24 05:59:00,44.8,42.0,30.15,NNE,22,0.0,0.0,90,0.00,OVC,OVC,0.00,WeatherDisplay:10.37,2013-05-24 09:59:00,
2013-05-24 06:04:00,44.8,42.0,30.15,North,0,0.0,0.0,90,0.00,OVC,OVC,0.00,WeatherDisplay:10.37,2013-05-24 10:04:00,
2013-05-24 06:09:00,44.6,41.6,30.15,NNE,22,0.0,0.0,89,0.00,OVC,OVC,0.00,WeatherDisplay:10.37,2013-05-24 10:09:00,
2013-05-24 06:14:00,44.4,41.1,30.15,NW,315,0.0,0.0,88,0.00,OVC,OVC,0.00,WeatherDisplay:10.37,2013-05-24 10:14:00,
2013-05-24 06:19:00,44.4,40.8,30.15,North,0,0.0,0.0,87,0.00,OVC,OVC,0.00,WeatherDisplay:10.37,2013-05-24 10:19:00,
2013-05-24 06:24:00,44.4,40.8,30.15,North,0,0.0,0.0,87,0.00,OVC,OVC,0.00,WeatherDisplay:10.37,2013-05-24 10:24:00,
2013-05-24 06:29:00,43.9,39.7,30.15,NW,315,0.0,0.0,85,0.00,OVC,OVC,0.00,WeatherDisplay:10.37,2013-05-24 10:29:00,
2013-05-24 06:34:00,43.9,39.7,30.15,NNW,338,0.0,0.0,85,0.00,OVC,OVC,0.00,WeatherDisplay:10.37,2013-05-24 10:34:00,
2013-05-24 06:39:00,43.5,39.0,30.17,NNW,338,0.0,0.0,84,0.00,OVC,OVC,0.00,WeatherDisplay:10.37,2013-05-24 10:39:00,
2013-05-24 06:44:00,43.5,39.0,30.16,NNW,338,0.0,0.0,84,0.00,OVC,OVC,0.00,WeatherDisplay:10.37,2013-05-24 10:44:00,
2013-05-24 06:49:00,43.3,38.8,30.16,NNW,338,0.0,0.0,84,0.00,OVC,OVC,0.00,WeatherDisplay:10.37,2013-05-24 10:49:00,
2013-05-24 06:54:00,43.3,38.8,30.16,NNW,338,0.0,0.0,84,0.00,OVC,OVC,0.00,WeatherDisplay:10.37,2013-05-24 10:54:00,
2013-05-24 06:59:00,43.2,38.7,30.16,NNW,338,0.0,0.0,84,0.00,OVC,OVC,0.00,WeatherDisplay:10.37,2013-05-24 10:59:00,
2013-05-24 07:04:00,43.2,38.7,30.17,NNW,338,0.0,0.0,84,0.00,OVC,OVC,0.00,WeatherDisplay:10.37,2013-05-24 11:04:00,
2013-05-24 07:09:00,43.0,38.5,30.17,NNE,22,1.2,0.0,84,0.00,OVC,OVC,0.00,WeatherDisplay:10.37,2013-05-24 11:09:00,
2013-05-24 07:14:00,43.0,38.5,30.17,NW,315,0.0,0.0,84,0.00,OVC,OVC,0.00,WeatherDisplay:10.37,2013-05-24 11:14:00,
2013-05-24 07:19:00,43.2,38.7,30.17,NNE,22,0.0,0.0,84,0.00,OVC,OVC,0.00,WeatherDisplay:10.37,2013-05-24 11:19:00,
2013-05-24 07:24:00,43.2,38.7,30.17,North,0,0.0,0.0,84,0.00,OVC,OVC,0.00,WeatherDisplay:10.37,2013-05-24 11:24:00,
2013-05-24 07:29:00,43.3,38.8,30.18,NW,315,0.0,0.0,84,0.00,OVC,OVC,0.00,WeatherDisplay:10.37,2013-05-24 11:29:00,
2013-05-24 07:34:00,43.3,38.8,30.18,North,0,0.0,0.0,84,0.00,OVC,OVC,0.00,WeatherDisplay:10.37,2013-05-24 11:34:00,
2013-05-24 07:39:00,43.5,38.7,30.18,NNE,22,4.6,4.6,83,0.00,OVC,OVC,0.00,WeatherDisplay:10.37,2013-05-24 11:39:00,
2013-05-24 07:44:00,43.7,38.9,30.18,ENE,68,4.6,4.6,83,0.00,OVC,OVC,0.00,WeatherDisplay:10.37,2013-05-24 11:44:00,
2013-05-24 07:49:00,43.7,38.9,30.18,NE,45,3.5,3.5,83,0.00,OVC,OVC,0.00,WeatherDisplay:10.37,2013-05-24 11:49:00,
2013-05-24 07:54:00,43.7,37.9,30.18,NNE,22,0.0,0.0,80,0.00,OVC,OVC,0.00,WeatherDisplay:10.37,2013-05-24 11:54:00,
2013-05-24 07:59:00,43.7,37.9,30.18,NW,315,0.0,0.0,80,0.00,OVC,OVC,0.00,WeatherDisplay:10.37,2013-05-24 11:59:00,
2013-05-24 08:04:00,43.7,37.9,30.19,South,180,1.2,0.0,80,0.00,OVC,OVC,0.00,WeatherDisplay:10.37,2013-05-24 12:04:00,
2013-05-24 08:09:00,43.5,37.8,30.19,NNW,338,0.0,0.0,80,0.00,OVC,OVC,0.00,WeatherDisplay:10.37,2013-05-24 12:09:00,
2013-05-24 08:14:00,43.3,36.6,30.20,NW,315,4.6,4.6,77,0.00,OVC,OVC,0.00,WeatherDisplay:10.37,2013-05-24 12:14:00,
2013-05-24 08:19:00,42.6,35.6,30.20,NW,315,2.3,2.3,76,0.00,OVC,OVC,0.00,WeatherDisplay:10.37,2013-05-24 12:19:00,
2013-05-24 08:24:00,42.6,35.6,30.20,NW,315,0.0,1.7,76,0.00,OVC,OVC,0.00,WeatherDisplay:10.37,2013-05-24 12:24:00,
2013-05-24 08:29:00,42.4,35.7,30.21,NW,315,0.0,0.0,77,0.00,OVC,OVC,0.00,WeatherDisplay:10.37,2013-05-24 12:29:00,
2013-05-24 08:34:00,42.4,35.7,30.21,North,0,0.0,3.3,77,0.00,OVC,OVC,0.00,WeatherDisplay:10.37,2013-05-24 12:34:00,
2013-05-24 08:39:00,42.4,36.1,30.21,NNW,338,3.5,3.5,78,0.00,OVC,OVC,0.00,WeatherDisplay:10.37,2013-05-24 12:39:00,
2013-05-24 08:44:00,42.4,36.1,30.21,WNW,292,1.2,1.2,78,0.00,OVC,OVC,0.00,WeatherDisplay:10.37,2013-05-24 12:44:00,
2013-05-24 08:49:00,42.4,35.7,30.22,NW,315,2.3,2.3,77,0.00,OVC,OVC,0.00,WeatherDisplay:10.37,2013-05-24 12:49:00,
2013-05-24 08:54:00,42.4,35.7,30.22,NW,315,2.3,2.3,77,0.00,OVC,OVC,0.00,WeatherDisplay:10.37,2013-05-24 12:54:00,
2013-05-24 08:59:00,42.4,35.7,30.22,NNE,22,0.0,0.0,77,0.00,OVC,OVC,0.00,WeatherDisplay:10.37,2013-05-24 12:59:00,
2013-05-24 09:04:00,42.6,35.9,30.22,North,0,1.2,1.2,77,0.00,OVC,OVC,0.00,WeatherDisplay:10.37,2013-05-24 13:04:00,
2013-05-24 09:09:00,43.3,36.6,30.22,North,0,2.3,2.3,77,0.00,OVC,OVC,0.00,WeatherDisplay:10.37,2013-05-24 13:09:00,
2013-05-24 09:14:00,43.5,36.1,30.22,NNE,22,4.6,5.1,75,0.00,OVC,OVC,0.00,WeatherDisplay:10.37,2013-05-24 13:14:00,
2013-05-24 09:19:00,44.4,36.3,30.23,NW,315,3.5,3.5,73,0.00,OVC,OVC,0.00,WeatherDisplay:10.37,2013-05-24 13:19:00,
2013-05-24 09:24:00,44.8,36.7,30.23,NW,315,0.0,0.0,73,0.00,OVC,OVC,0.00,WeatherDisplay:10.37,2013-05-24 13:24:00,
2013-05-24 09:29:00,45.1,36.3,30.23,NNE,22,2.3,2.3,71,0.00,OVC,OVC,0.00,WeatherDisplay:10.37,2013-05-24 13:29:00,
2013-05-24 09:34:00,45.3,36.5,30.23,NNW,338,2.3,2.4,71,0.00,OVC,OVC,0.00,WeatherDisplay:10.37,2013-05-24 13:34:00,
2013-05-24 09:39:00,45.7,36.8,30.23,WNW,292,1.2,1.2,71,0.00,OVC,OVC,0.00,WeatherDisplay:10.37,2013-05-24 13:39:00,
2013-05-24 09:44:00,45.9,37.0,30.23,West,270,0.0,0.0,71,0.00,OVC,OVC,0.00,WeatherDisplay:10.37,2013-05-24 13:44:00,
2013-05-24 09:49:00,46.2,37.3,30.23,NW,315,1.2,1.2,71,0.00,OVC,OVC,0.00,WeatherDisplay:10.37,2013-05-24 13:49:00,
2013-05-24 09:54:00,46.2,37.0,30.23,NE,45,2.3,0.0,70,0.00,OVC,OVC,0.00,WeatherDisplay:10.37,2013-05-24 13:54:00,
2013-05-24 09:59:00,46.2,37.0,30.23,NNW,338,0.0,0.3,70,0.00,OVC,OVC,0.00,WeatherDisplay:10.37,2013-05-24 13:59:00,
2013-05-24 10:04:00,46.8,37.5,30.23,NE,45,0.0,0.0,70,0.00,OVC,OVC,0.00,WeatherDisplay:10.37,2013-05-24 14:04:00,
2013-05-24 10:09:00,47.3,37.6,30.23,WNW,292,0.0,0.0,69,0.00,OVC,OVC,0.00,WeatherDisplay:10.37,2013-05-24 14:09:00,
2013-05-24 10:14:00,47.7,38.4,30.24,NNW,338,2.3,2.3,70,0.00,OVC,OVC,0.00,WeatherDisplay:10.37,2013-05-24 14:14:00,
2013-05-24 10:19:00,47.7,38.0,30.24,NNE,22,0.0,0.0,69,0.00,OVC,OVC,0.00,WeatherDisplay:10.37,2013-05-24 14:19:00,
2013-05-24 10:24:00,47.3,37.6,30.24,NW,315,0.0,0.0,69,0.00,OVC,OVC,0.00,WeatherDisplay:10.37,2013-05-24 14:24:00,
2013-05-24 10:29:00,47.3,37.6,30.24,WNW,292,0.0,4.4,69,0.00,OVC,OVC,0.00,WeatherDisplay:10.37,2013-05-24 14:29:00,
2013-05-24 10:34:00,46.9,36.9,30.24,WNW,292,3.5,3.5,68,0.00,OVC,OVC,0.00,WeatherDisplay:10.37,2013-05-24 14:34:00,
2013-05-24 10:39:00,46.8,36.8,30.24,WNW,292,2.3,2.3,68,0.00,OVC,OVC,0.00,WeatherDisplay:10.37,2013-05-24 14:39:00,
2013-05-24 10:44:00,46.6,37.0,30.24,South,180,0.0,0.0,69,0.00,OVC,OVC,0.00,WeatherDisplay:10.37,2013-05-24 14:44:00,
2013-05-24 10:49:00,46.9,36.9,30.24,West,270,0.0,0.5,68,0.00,OVC,OVC,0.00,WeatherDisplay:10.37,2013-05-24 14:49:00,
2013-05-24 10:54:00,47.1,37.1,30.24,NE,45,3.5,3.5,68,0.00,OVC,OVC,0.00,WeatherDisplay:10.37,2013-05-24 14:54:00,
2013-05-24 10:59:00,47.5,37.4,30.24,West,270,0.0,0.0,68,0.00,OVC,OVC,0.00,WeatherDisplay:10.37,2013-05-24 14:59:00,
2013-05-24 11:04:00,47.8,37.4,30.25,SSW,202,2.3,0.0,67,0.00,OVC,OVC,0.00,WeatherDisplay:10.37,2013-05-24 15:04:00,
2013-05-24 11:09:00,48.7,37.5,30.25,WNW,292,0.0,0.1,65,0.00,OVC,OVC,0.00,WeatherDisplay:10.37,2013-05-24 15:09:00,
2013-05-24 11:14:00,48.9,37.3,30.25,North,0,1.2,1.5,64,0.00,OVC,OVC,0.00,WeatherDisplay:10.37,2013-05-24 15:14:00,
2013-05-24 11:19:00,49.3,37.6,30.25,WNW,292,4.6,4.6,64,0.00,OVC,OVC,0.00,WeatherDisplay:10.37,2013-05-24 15:19:00,
2013-05-24 11:24:00,50.2,38.9,30.25,NW,315,2.3,2.3,65,0.00,OVC,OVC,0.00,WeatherDisplay:10.37,2013-05-24 15:24:00,
2013-05-24 11:29:00,50.4,38.6,30.26,North,0,0.0,0.0,64,0.00,OVC,OVC,0.00,WeatherDisplay:10.37,2013-05-24 15:29:00,
2013-05-24 11:34:00,50.5,38.8,30.26,NE,45,1.2,0.0,64,0.00,OVC,OVC,0.00,WeatherDisplay:10.37,2013-05-24 15:34:00,
2013-05-24 11:39:00,50.5,38.8,30.26,West,270,0.0,0.0,64,0.00,OVC,OVC,0.00,WeatherDisplay:10.37,2013-05-24 15:39:00,
2013-05-24 11:44:00,50.5,38.8,30.26,WNW,292,1.2,1.2,64,0.00,OVC,OVC,0.00,WeatherDisplay:10.37,2013-05-24 15:44:00,
2013-05-24 11:49:00,50.2,37.7,30.26,NNW,338,0.0,1.2,62,0.00,OVC,OVC,0.00,WeatherDisplay:10.37,2013-05-24 15:49:00,
2013-05-24 11:54:00,49.8,37.7,30.26,WNW,292,2.3,2.3,63,0.00,OVC,OVC,0.00,WeatherDisplay:10.37,2013-05-24 15:54:00,
2013-05-24 11:59:00,49.8,37.7,30.26,NW,315,0.0,0.8,63,0.00,OVC,OVC,0.00,WeatherDisplay:10.37,2013-05-24 15:59:00,
2013-05-24 12:04:00,50.4,38.2,30.25,NNE,22,2.3,2.3,63,0.00,OVC,OVC,0.00,WeatherDisplay:10.37,2013-05-24 16:04:00,
2013-05-24 12:09:00,51.1,38.5,30.26,NE,45,0.0,0.0,62,0.00,OVC,OVC,0.00,WeatherDisplay:10.37,2013-05-24 16:09:00,
2013-05-24 12:14:00,51.1,38.5,30.26,WNW,292,1.2,1.6,62,0.00,OVC,OVC,0.00,WeatherDisplay:10.37,2013-05-24 16:14:00,
2013-05-24 12:19:00,52.3,38.9,30.26,North,0,0.0,1.6,60,0.00,OVC,OVC,0.00,WeatherDisplay:10.37,2013-05-24 16:19:00,
2013-05-24 12:24:00,52.0,38.9,30.25,WNW,292,2.3,2.3,61,0.00,OVC,OVC,0.00,WeatherDisplay:10.37,2013-05-24 16:24:00,
2013-05-24 12:29:00,52.2,39.1,30.25,NNW,338,0.0,1.8,61,0.00,OVC,OVC,0.00,WeatherDisplay:10.37,2013-05-24 16:29:00,
2013-05-24 12:34:00,52.3,39.7,30.26,NNW,338,1.2,1.2,62,0.00,OVC,OVC,0.00,WeatherDisplay:10.37,2013-05-24 16:34:00,
2013-05-24 12:39:00,52.3,38.9,30.26,NW,315,0.0,0.0,60,0.00,OVC,OVC,0.00,WeatherDisplay:10.37,2013-05-24 16:39:00,
2013-05-24 12:44:00,52.3,38.9,30.26,West,270,3.5,0.0,60,0.00,OVC,OVC,0.00,WeatherDisplay:10.37,2013-05-24 16:44:00,
2013-05-24 12:49:00,53.2,39.7,30.26,North,0,4.6,4.6,60,0.00,OVC,OVC,0.00,WeatherDisplay:10.37,2013-05-24 16:49:00,
2013-05-24 12:54:00,53.8,39.8,30.26,NNE,22,3.5,3.5,59,0.00,OVC,OVC,0.00,WeatherDisplay:10.37,2013-05-24 16:54:00,
2013-05-24 12:59:00,54.7,40.6,30.26,SE,135,0.0,0.0,59,0.00,OVC,OVC,0.00,WeatherDisplay:10.37,2013-05-24 16:59:00,
2013-05-24 13:04:00,54.5,39.6,30.26,East,90,5.8,5.8,57,0.00,OVC,OVC,0.00,WeatherDisplay:10.37,2013-05-24 17:04:00,
2013-05-24 13:09:00,54.5,39.6,30.26,WNW,292,0.0,0.0,57,0.00,OVC,OVC,0.00,WeatherDisplay:10.37,2013-05-24 17:09:00,
2013-05-24 13:14:00,54.1,38.8,30.26,WNW,292,2.3,2.3,56,0.00,OVC,OVC,0.00,WeatherDisplay:10.37,2013-05-24 17:14:00,
2013-05-24 13:19:00,54.1,38.8,30.26,NW,315,1.2,0.0,56,0.00,OVC,OVC,0.00,WeatherDisplay:10.37,2013-05-24 17:19:00,
2013-05-24 13:24:00,54.3,39.8,30.26,West,270,1.2,1.2,58,0.00,OVC,OVC,0.00,WeatherDisplay:10.37,2013-05-24 17:24:00,
2013-05-24 13:29:00,54.7,40.2,30.26,NW,315,2.3,2.3,58,0.00,OVC,OVC,0.00,WeatherDisplay:10.37,2013-05-24 17:29:00,
2013-05-24 13:34:00,55.2,40.7,30.26,WSW,248,3.5,3.5,58,0.00,OVC,OVC,0.00,WeatherDisplay:10.37,2013-05-24 17:34:00,
2013-05-24 13:39:00,55.6,40.1,30.26,North,0,0.0,2.0,56,0.00,OVC,OVC,0.00,WeatherDisplay:10.37,2013-05-24 17:39:00,
2013-05-24 13:44:00,55.9,40.5,30.26,NNW,338,3.5,3.5,56,0.00,OVC,OVC,0.00,WeatherDisplay:10.37,2013-05-24 17:44:00,
2013-05-24 13:49:00,56.1,40.6,30.26,WSW,248,0.0,0.0,56,0.00,OVC,OVC,0.00,WeatherDisplay:10.37,2013-05-24 17:49:00,
2013-05-24 13:54:00,56.8,40.8,30.26,West,270,2.3,2.3,55,0.00,OVC,OVC,0.00,WeatherDisplay:10.37,2013-05-24 17:54:00,
2013-05-24 13:59:00,57.2,40.7,30.26,WSW,248,3.5,3.5,54,0.00,OVC,OVC,0.00,WeatherDisplay:10.37,2013-05-24 17:59:00,
2013-05-24 14:04:00,57.6,41.0,30.26,NNE,22,3.5,3.5,54,0.00,OVC,OVC,0.00,WeatherDisplay:10.37,2013-05-24 18:04:00,
2013-05-24 14:09:00,57.6,41.0,30.26,NNE,22,0.0,1.8,54,0.00,OVC,OVC,0.00,WeatherDisplay:10.37,2013-05-24 18:09:00,
2013-05-24 14:14:00,57.9,40.9,30.26,NW,315,3.5,3.5,53,0.00,OVC,OVC,0.00,WeatherDisplay:10.37,2013-05-24 18:14:00,
2013-05-24 14:19:00,58.5,40.9,30.26,NW,315,4.6,4.6,52,0.00,OVC,OVC,0.00,WeatherDisplay:10.37,2013-05-24 18:19:00,
2013-05-24 14:24:00,58.6,41.1,30.26,North,0,0.0,0.0,52,0.00,OVC,OVC,0.00,WeatherDisplay:10.37,2013-05-24 18:24:00,
2013-05-24 14:29:00,58.8,41.2,30.26,WNW,292,3.5,3.5,52,0.00,OVC,OVC,0.00,WeatherDisplay:10.37,2013-05-24 18:29:00,
2013-05-24 14:34:00,59.5,41.9,30.26,ENE,68,2.3,2.3,52,0.00,OVC,OVC,0.00,WeatherDisplay:10.37,2013-05-24 18:34:00,
2013-05-24 14:39:00,59.5,40.9,30.26,NW,315,1.2,2.7,50,0.00,OVC,OVC,0.00,WeatherDisplay:10.37,2013-05-24 18:39:00,
2013-05-24 14:44:00,60.1,41.9,30.25,WNW,292,4.6,4.6,51,0.00,OVC,OVC,0.00,WeatherDisplay:10.37,2013-05-24 18:44:00,
2013-05-24 14:49:00,60.4,42.2,30.25,NW,315,0.0,3.2,51,0.00,OVC,OVC,0.00,WeatherDisplay:10.37,2013-05-24 18:49:00,
2013-05-24 14:54:00,61.0,42.2,30.25,NNE,22,0.0,0.0,50,0.00,OVC,OVC,0.00,WeatherDisplay:10.37,2013-05-24 18:54:00,
2013-05-24 14:59:00,60.6,41.3,30.25,North,0,1.2,1.2,49,0.00,OVC,OVC,0.00,WeatherDisplay:10.37,2013-05-24 18:59:00,
2013-05-24 15:04:00,60.4,41.2,30.25,WNW,292,3.5,3.5,49,0.00,OVC,OVC,0.00,WeatherDisplay:10.37,2013-05-24 19:04:00,
2013-05-24 15:09:00,60.6,41.3,30.25,West,270,0.0,1.4,49,0.00,OVC,OVC,0.00,WeatherDisplay:10.37,2013-05-24 19:09:00,
2013-05-24 15:14:00,60.6,41.3,30.25,NNE,22,0.0,0.0,49,0.00,OVC,OVC,0.00,WeatherDisplay:10.37,2013-05-24 19:14:00,
2013-05-24 15:19:00,61.0,41.1,30.25,West,270,4.7,0.0,48,0.00,OVC,OVC,0.00,WeatherDisplay:10.37,2013-05-24 19:19:00,
2013-05-24 15:24:00,61.3,41.5,30.25,West,270,4.6,4.6,48,0.00,OVC,OVC,0.00,WeatherDisplay:10.37,2013-05-24 19:24:00,
2013-05-24 15:29:00,61.3,41.5,30.25,West,270,0.0,0.0,48,0.00,OVC,OVC,0.00,WeatherDisplay:10.37,2013-05-24 19:29:00,
2013-05-24 15:34:00,61.3,40.9,30.25,NNW,338,3.5,3.5,47,0.00,OVC,OVC,0.00,WeatherDisplay:10.37,2013-05-24 19:34:00,
2013-05-24 15:39:00,61.3,40.9,30.25,NW,315,0.0,1.3,47,0.00,OVC,OVC,0.00,WeatherDisplay:10.37,2013-05-24 19:39:00,
2013-05-24 15:44:00,61.5,41.6,30.25,NW,315,0.0,0.0,48,0.00,OVC,OVC,0.00,WeatherDisplay:10.37,2013-05-24 19:44:00,
2013-05-24 15:49:00,61.9,42.0,30.25,WNW,292,3.5,3.8,48,0.00,OVC,OVC,0.00,WeatherDisplay:10.37,2013-05-24 19:49:00,
2013-05-24 15:54:00,61.9,41.4,30.25,WSW,248,4.6,4.6,47,0.00,OVC,OVC,0.00,WeatherDisplay:10.37,2013-05-24 19:54:00,
2013-05-24 15:59:00,61.9,41.4,30.25,WNW,292,4.6,4.6,47,0.00,OVC,OVC,0.00,WeatherDisplay:10.37,2013-05-24 19:59:00,
2013-05-24 16:04:00,61.7,40.7,30.25,West,270,0.0,2.9,46,0.00,OVC,OVC,0.00,WeatherDisplay:10.37,2013-05-24 20:04:00,
2013-05-24 16:09:00,61.3,40.4,30.25,ENE,68,0.0,0.0,46,0.00,OVC,OVC,0.00,WeatherDisplay:10.37,2013-05-24 20:09:00,
2013-05-24 16:14:00,61.3,40.4,30.25,North,0,3.5,3.5,46,0.00,OVC,OVC,0.00,WeatherDisplay:10.37,2013-05-24 20:14:00,
2013-05-24 16:19:00,61.3,40.4,30.25,North,0,2.3,0.0,46,0.00,OVC,OVC,0.00,WeatherDisplay:10.37,2013-05-24 20:19:00,
2013-05-24 16:24:00,61.5,40.5,30.25,WSW,248,3.5,3.5,46,0.00,OVC,OVC,0.00,WeatherDisplay:10.37,2013-05-24 20:24:00,
2013-05-24 16:29:00,61.5,40.5,30.25,West,270,1.2,3.4,46,0.00,OVC,OVC,0.00,WeatherDisplay:10.37,2013-05-24 20:29:00,
2013-05-24 16:34:00,62.2,41.7,30.25,NNW,338,0.0,0.0,47,0.00,OVC,OVC,0.00,WeatherDisplay:10.37,2013-05-24 20:34:00,
2013-05-24 16:39:00,62.4,41.9,30.25,NNW,338,0.0,2.5,47,0.00,OVC,OVC,0.00,WeatherDisplay:10.37,2013-05-24 20:39:00,
2013-05-24 16:44:00,61.5,40.0,30.25,North,0,0.0,0.0,45,0.00,OVC,OVC,0.00,WeatherDisplay:10.37,2013-05-24 20:44:00,
2013-05-24 16:49:00,61.5,40.5,30.25,WNW,292,2.3,2.3,46,0.00,OVC,OVC,0.00,WeatherDisplay:10.37,2013-05-24 20:49:00,
2013-05-24 16:54:00,61.7,40.7,30.25,North,0,1.2,1.5,46,0.00,OVC,OVC,0.00,WeatherDisplay:10.37,2013-05-24 20:54:00,
2013-05-24 16:59:00,61.7,40.1,30.25,NNW,338,0.0,0.0,45,0.00,OVC,OVC,0.00,WeatherDisplay:10.37,2013-05-24 20:59:00,
2013-05-24 17:04:00,62.1,40.5,30.24,North,0,0.0,0.0,45,0.00,OVC,OVC,0.00,WeatherDisplay:10.37,2013-05-24 21:04:00,
2013-05-24 17:09:00,62.1,40.5,30.24,NW,315,4.7,4.7,45,0.00,OVC,OVC,0.00,WeatherDisplay:10.37,2013-05-24 21:09:00,
2013-05-24 17:14:00,62.2,40.6,30.24,NE,45,3.5,3.5,45,0.00,OVC,OVC,0.00,WeatherDisplay:10.37,2013-05-24 21:14:00,
2013-05-24 17:19:00,62.2,41.2,30.24,NW,315,2.3,2.3,46,0.00,OVC,OVC,0.00,WeatherDisplay:10.37,2013-05-24 21:19:00,
2013-05-24 17:24:00,62.2,41.2,30.24,NNW,338,2.3,2.3,46,0.00,OVC,OVC,0.00,WeatherDisplay:10.37,2013-05-24 21:24:00,
2013-05-24 17:29:00,61.9,40.3,30.24,NW,315,0.0,2.3,45,0.00,OVC,OVC,0.00,WeatherDisplay:10.37,2013-05-24 21:29:00,
2013-05-24 17:34:00,61.7,40.7,30.23,NNW,338,2.3,2.3,46,0.00,OVC,OVC,0.00,WeatherDisplay:10.37,2013-05-24 21:34:00,
2013-05-24 17:39:00,61.9,40.3,30.23,North,0,0.0,1.8,45,0.00,OVC,OVC,0.00,WeatherDisplay:10.37,2013-05-24 21:39:00,
2013-05-24 17:44:00,62.1,40.5,30.23,NNE,22,0.0,0.0,45,0.00,OVC,OVC,0.00,WeatherDisplay:10.37,2013-05-24 21:44:00,
2013-05-24 17:49:00,61.9,39.7,30.24,WNW,292,0.0,0.4,44,0.00,OVC,OVC,0.00,WeatherDisplay:10.37,2013-05-24 21:49:00,
2013-05-24 17:54:00,61.7,40.1,30.23,NNW,338,1.2,1.5,45,0.00,OVC,OVC,0.00,WeatherDisplay:10.37,2013-05-24 21:54:00,
2013-05-24 17:59:00,61.9,40.3,30.23,WNW,292,0.0,0.0,45,0.00,OVC,OVC,0.00,WeatherDisplay:10.37,2013-05-24 21:59:00,
2013-05-24 18:04:00,62.2,41.2,30.23,NNE,22,2.3,2.3,46,0.00,OVC,OVC,0.00,WeatherDisplay:10.37,2013-05-24 22:04:00,
2013-05-24 18:09:00,62.2,40.0,30.23,NNE,22,2.3,2.3,44,0.00,OVC,OVC,0.00,WeatherDisplay:10.37,2013-05-24 22:09:00,
2013-05-24 18:14:00,64.6,42.2,30.23,NW,315,0.0,0.0,44,0.00,OVC,OVC,0.00,WeatherDisplay:10.37,2013-05-24 22:14:00,
2013-05-24 18:19:00,68.2,45.4,30.23,NNW,338,0.0,0.0,44,0.00,OVC,OVC,0.00,WeatherDisplay:10.37,2013-05-24 22:19:00,
2013-05-24 18:24:00,71.4,44.5,30.23,NNW,338,0.0,0.0,38,0.00,OVC,OVC,0.00,WeatherDisplay:10.37,2013-05-24 22:24:00,
2013-05-24 18:29:00,74.8,46.1,30.23,NNE,22,1.2,1.2,36,0.00,OVC,OVC,0.00,WeatherDisplay:10.37,2013-05-24 22:29:00,
2013-05-24 18:34:00,76.8,45.5,30.23,NW,315,0.0,0.0,33,0.00,OVC,OVC,0.00,WeatherDisplay:10.37,2013-05-24 22:34:00,
2013-05-24 18:39:00,77.9,44.8,30.23,NE,45,0.0,0.0,31,0.00,OVC,OVC,0.00,WeatherDisplay:10.37,2013-05-24 22:39:00,
2013-05-24 18:44:00,78.4,45.3,30.23,North,0,0.0,0.0,31,0.00,OVC,OVC,0.00,WeatherDisplay:10.37,2013-05-24 22:44:00,
2013-05-24 18:49:00,79.0,45.8,30.23,NE,45,0.0,0.0,31,0.00,OVC,OVC,0.00,WeatherDisplay:10.37,2013-05-24 22:49:00,
2013-05-24 18:54:00,80.2,46.0,30.23,NNW,338,0.0,0.0,30,0.00,OVC,OVC,0.00,WeatherDisplay:10.37,2013-05-24 22:54:00,
2013-05-24 18:59:00,79.0,44.0,30.23,NNW,338,0.0,0.0,29,0.00,OVC,OVC,0.00,WeatherDisplay:10.37,2013-05-24 22:59:00,
2013-05-24 19:04:00,71.4,40.0,30.23,NNE,22,2.3,2.3,32,0.00,OVC,OVC,0.00,WeatherDisplay:10.37,2013-05-24 23:04:00,
2013-05-24 19:09:00,67.6,39.7,30.23,NNE,22,0.0,24.8,36,0.00,OVC,OVC,0.00,WeatherDisplay:10.37,2013-05-24 23:09:00,
2013-05-24 19:14:00,64.2,36.7,30.23,NW,315,0.0,0.0,36,0.00,OVC,OVC,0.00,WeatherDisplay:10.37,2013-05-24 23:14:00,
2013-05-24 19:19:00,61.5,37.0,30.23,WNW,292,0.0,0.1,40,0.00,OVC,OVC,0.00,WeatherDisplay:10.37,2013-05-24 23:19:00,
2013-05-24 19:24:00,59.9,36.7,30.23,NE,45,2.3,2.3,42,0.00,OVC,OVC,0.00,WeatherDisplay:10.37,2013-05-24 23:24:00,
2013-05-24 19:29:00,59.5,37.6,30.22,North,0,0.0,0.0,44,0.00,OVC,OVC,0.00,WeatherDisplay:10.37,2013-05-24 23:29:00,
2013-05-24 19:34:00,58.5,37.2,30.22,North,0,0.0,0.0,45,0.00,OVC,OVC,0.00,WeatherDisplay:10.37,2013-05-24 23:34:00,
2013-05-24 19:39:00,57.6,36.4,30.22,North,0,0.0,0.0,45,0.00,OVC,OVC,0.00,WeatherDisplay:10.37,2013-05-24 23:39:00,
2013-05-24 19:44:00,57.6,36.4,30.22,North,0,0.0,0.0,45,0.00,OVC,OVC,0.00,WeatherDisplay:10.37,2013-05-24 23:44:00,
2013-05-24 19:49:00,57.6,36.4,30.22,NNE,22,0.0,0.0,45,0.00,OVC,OVC,0.00,WeatherDisplay:10.37,2013-05-24 23:49:00,
2013-05-24 19:54:00,56.5,35.4,30.22,NNE,22,0.0,0.0,45,0.00,OVC,OVC,0.00,WeatherDisplay:10.37,2013-05-24 23:54:00,
2013-05-24 19:59:00,55.9,34.9,30.22,North,0,0.0,0.0,45,0.00,OVC,OVC,0.00,WeatherDisplay:10.37,2013-05-24 23:59:00,
2013-05-24 20:04:00,55.9,37.6,30.22,NNE,22,0.0,0.0,50,0.00,OVC,OVC,0.00,WeatherDisplay:10.37,2013-05-25 00:04:00,
2013-05-24 20:09:00,55.4,37.1,30.23,NNE,22,0.0,0.0,50,0.00,OVC,OVC,0.00,WeatherDisplay:10.37,2013-05-25 00:09:00,
2013-05-24 20:14:00,55.4,37.1,30.23,NNE,22,0.0,0.0,50,0.00,OVC,OVC,0.00,WeatherDisplay:10.37,2013-05-25 00:14:00,
2013-05-24 20:19:00,55.0,36.7,30.23,NNE,22,0.0,0.0,50,0.00,OVC,OVC,0.00,WeatherDisplay:10.37,2013-05-25 00:19:00,
2013-05-24 20:24:00,54.7,36.9,30.23,NW,315,0.0,0.0,51,0.00,OVC,OVC,0.00,WeatherDisplay:10.37,2013-05-25 00:24:00,
2013-05-24 20:29:00,54.5,36.7,30.23,NNE,22,0.0,0.0,51,0.00,OVC,OVC,0.00,WeatherDisplay:10.37,2013-05-25 00:29:00,
2013-05-24 20:34:00,54.1,36.4,30.22,NNE,22,0.0,0.0,51,0.00,OVC,OVC,0.00,WeatherDisplay:10.37,2013-05-25 00:34:00,
2013-05-24 20:39:00,53.8,36.6,30.22,NNE,22,0.0,0.0,52,0.00,OVC,OVC,0.00,WeatherDisplay:10.37,2013-05-25 00:39:00,
2013-05-24 20:44:00,53.8,36.6,30.22,North,0,0.0,0.0,52,0.00,OVC,OVC,0.00,WeatherDisplay:10.37,2013-05-25 00:44:00,
2013-05-24 20:49:00,53.2,36.5,30.22,NNE,22,0.0,0.0,53,0.00,OVC,OVC,0.00,WeatherDisplay:10.37,2013-05-25 00:49:00,
2013-05-24 20:54:00,52.9,36.7,30.22,NNE,22,0.0,0.0,54,0.00,OVC,OVC,0.00,WeatherDisplay:10.37,2013-05-25 00:54:00,
2013-05-24 20:59:00,52.5,36.3,30.22,NNE,22,0.0,0.0,54,0.00,OVC,OVC,0.00,WeatherDisplay:10.37,2013-05-25 00:59:00,
2013-05-24 21:04:00,52.3,36.2,30.22,NNW,338,0.0,0.0,54,0.00,OVC,OVC,0.00,WeatherDisplay:10.37,2013-05-25 01:04:00,
2013-05-24 21:09:00,52.0,36.8,30.22,NNW,338,0.0,0.0,56,0.00,OVC,OVC,0.00,WeatherDisplay:10.37,2013-05-25 01:09:00,
2013-05-24 21:14:00,52.0,36.8,30.22,NNE,22,0.0,0.0,56,0.00,OVC,OVC,0.00,WeatherDisplay:10.37,2013-05-25 01:14:00,
2013-05-24 21:19:00,51.4,36.7,30.22,NNE,22,0.0,0.0,57,0.00,OVC,OVC,0.00,WeatherDisplay:10.37,2013-05-25 01:19:00,
2013-05-24 21:24:00,51.1,36.8,30.22,NNE,22,0.0,0.0,58,0.00,OVC,OVC,0.00,WeatherDisplay:10.37,2013-05-25 01:24:00,
2013-05-24 21:29:00,50.9,37.1,30.22,NNE,22,0.0,0.0,59,0.00,OVC,OVC,0.00,WeatherDisplay:10.37,2013-05-25 01:29:00,
2013-05-24 21:34:00,50.5,37.6,30.22,WNW,292,0.0,0.0,61,0.00,OVC,OVC,0.00,WeatherDisplay:10.37,2013-05-25 01:34:00,
2013-05-24 21:39:00,50.0,37.1,30.22,NW,315,0.0,0.0,61,0.00,OVC,OVC,0.00,WeatherDisplay:10.37,2013-05-25 01:39:00,
2013-05-24 21:44:00,49.8,36.9,30.22,NW,315,0.0,0.0,61,0.00,OVC,OVC,0.00,WeatherDisplay:10.37,2013-05-25 01:44:00,
2013-05-24 21:49:00,49.3,37.2,30.22,NNE,22,0.0,0.0,63,0.00,OVC,OVC,0.00,WeatherDisplay:10.37,2013-05-25 01:49:00,
2013-05-24 21:54:00,49.3,37.2,30.22,North,0,0.0,0.0,63,0.00,OVC,OVC,0.00,WeatherDisplay:10.37,2013-05-25 01:54:00,
2013-05-24 21:59:00,49.1,37.4,30.23,West,270,0.0,0.0,64,0.00,OVC,OVC,0.00,WeatherDisplay:10.37,2013-05-25 01:59:00,
2013-05-24 22:04:00,48.7,37.1,30.23,West,270,0.0,0.0,64,0.00,OVC,OVC,0.00,WeatherDisplay:10.37,2013-05-25 02:04:00,
2013-05-24 22:09:00,48.4,36.8,30.23,West,270,0.0,0.0,64,0.00,OVC,OVC,0.00,WeatherDisplay:10.37,2013-05-25 02:09:00,
2013-05-24 22:14:00,48.0,36.4,30.23,West,270,0.0,0.0,64,0.00,OVC,OVC,0.00,WeatherDisplay:10.37,2013-05-25 02:14:00,
2013-05-24 22:19:00,47.8,37.4,30.23,West,270,0.0,0.0,67,0.00,OVC,OVC,0.00,WeatherDisplay:10.37,2013-05-25 02:19:00,
2013-05-24 22:24:00,47.5,37.1,30.24,West,270,0.0,0.0,67,0.00,OVC,OVC,0.00,WeatherDisplay:10.37,2013-05-25 02:24:00,
2013-05-24 22:29:00,47.1,37.1,30.24,West,270,0.0,0.0,68,0.00,OVC,OVC,0.00,WeatherDisplay:10.37,2013-05-25 02:29:00,
2013-05-24 22:34:00,46.9,36.9,30.24,WNW,292,0.0,0.0,68,0.00,OVC,OVC,0.00,WeatherDisplay:10.37,2013-05-25 02:34:00,
2013-05-24 22:39:00,46.6,37.0,30.25,WNW,292,0.0,0.0,69,0.00,OVC,OVC,0.00,WeatherDisplay:10.37,2013-05-25 02:39:00,
2013-05-24 22:44:00,46.4,36.8,30.25,WNW,292,0.0,0.0,69,0.00,OVC,OVC,0.00,WeatherDisplay:10.37,2013-05-25 02:44:00,
2013-05-24 22:49:00,46.0,36.4,30.25,WNW,292,0.0,0.0,69,0.00,OVC,OVC,0.00,WeatherDisplay:10.37,2013-05-25 02:49:00,
2013-05-24 22:54:00,45.7,36.8,30.25,NW,315,0.0,0.0,71,0.00,OVC,OVC,0.00,WeatherDisplay:10.37,2013-05-25 02:54:00,
2013-05-24 22:59:00,45.3,36.5,30.25,NW,315,0.0,0.0,71,0.00,OVC,OVC,0.00,WeatherDisplay:10.37,2013-05-25 02:59:00,
2013-05-24 23:04:00,45.1,36.6,30.25,NW,315,0.0,0.0,72,0.00,OVC,OVC,0.00,WeatherDisplay:10.37,2013-05-25 03:04:00,
2013-05-24 23:09:00,45.0,36.8,30.26,NW,315,0.0,0.0,73,0.00,OVC,OVC,0.00,WeatherDisplay:10.37,2013-05-25 03:09:00,
2013-05-24 23:14:00,45.0,36.8,30.26,NW,315,0.0,0.0,73,0.00,OVC,OVC,0.00,WeatherDisplay:10.37,2013-05-25 03:14:00,
2013-05-24 23:19:00,44.6,36.5,30.26,NW,315,0.0,0.0,73,0.00,OVC,OVC,0.00,WeatherDisplay:10.37,2013-05-25 03:19:00,
2013-05-24 23:24:00,44.4,36.6,30.26,WNW,292,0.0,0.0,74,0.00,OVC,OVC,0.00,WeatherDisplay:10.37,2013-05-25 03:24:00,
2013-05-24 23:29:00,44.4,36.6,30.26,WNW,292,0.0,0.0,74,0.00,OVC,OVC,0.00,WeatherDisplay:10.37,2013-05-25 03:29:00,
2013-05-24 23:34:00,44.2,36.8,30.26,WNW,292,0.0,0.0,75,0.00,OVC,OVC,0.00,WeatherDisplay:10.37,2013-05-25 03:34:00,
2013-05-24 23:39:00,44.2,37.2,30.26,WNW,292,0.0,0.0,76,0.00,OVC,OVC,0.00,WeatherDisplay:10.37,2013-05-25 03:39:00,
2013-05-24 23:44:00,44.1,37.0,30.26,WNW,292,0.0,0.0,76,0.00,OVC,OVC,0.00,WeatherDisplay:10.37,2013-05-25 03:44:00,
2013-05-24 23:49:00,43.9,36.8,30.26,West,270,0.0,0.0,76,0.00,OVC,OVC,0.00,WeatherDisplay:10.37,2013-05-25 03:49:00,
2013-05-24 23:54:00,43.5,36.5,30.26,West,270,0.0,0.0,76,0.00,OVC,OVC,0.00,WeatherDisplay:10.37,2013-05-25 03:54:00,
2013-05-24 23:59:00,43.5,36.5,30.26,SSW,202,0.0,0.0,76,0.00,OVC,OVC,0.00,WeatherDisplay:10.37,2013-05-25 03:59:00,